Location: Jefferson
(30.9666°N, 81.7901°W)
Time: 18:29:47
(UTC+00:00)

ACS3 Solar Sail - Pass Details

Date: 23 September 2024
Orbit: 961 x 1035 km, 97.4° (Epoch: 08 October)

Event Time Altitude Azimuth Distance (km) Brightness Sun altitude
Exits shadow 03:02:45 20° 282° (WNW) 2,173 4.0 -45.4°
Drops below altitude 10° 03:06:17 10° 315° (NW) 2,843 4.8 -46.0°
Sets 03:09:30 0° 330° (NNW) 3,798 5.5 -46.5°
